Location: Ponte Samoggia
(44.5667°N, 11.1333°E)
Time: 16:08:52
(UTC+00:00)

NPP - Pass Details

Date: 26 May 2022
Orbit: 826 x 828 km, 98.7° (Epoch: 07 July)

Event Time Altitude Azimuth Distance (km) Brightness Sun altitude
Rises 01:49:30 0° 7° (N) 3,378 7.9 -15.2°
Reaches altitude 10° 01:51:58 10° 1° (N) 2,440 6.9 -14.9°
Maximum altitude 01:56:59 41° 293° (WNW) 1,187 4.3 -14.4°
Enters shadow 02:00:19 20° 233° (SW) 1,845 4.9 -14.0°
